Location: Bocianicha
(51.5066°N, 19.2563°E)
Time: 13:56:32
(UTC+00:00)

Cosmos 2026 Rocket - Pass Details

Date: 15 June 2025
Orbit: 937 x 1001 km, 82.9° (Epoch: 17 July)

Event Time Altitude Azimuth Distance (km) Brightness Sun altitude
Exits shadow 01:06:31 10° 201° (SSW) 2,745 5.7 -8.9°
Reaches altitude 10° 01:06:31 10° 201° (SSW) 2,744 5.7 -8.9°
Maximum altitude 01:12:47 66° 283° (WNW) 1,067 4.2 -8.3°
Drops below altitude 10° 01:18:59 10° 6° (N) 2,720 7.4 -7.8°
Sets 01:21:31 0° 9° (N) 3,661 8.3 -7.5°
